Weather History for Grove, OK

Change the Weather History Date:

Tuesday, April 23, 2013

  Actual Average (KSLG) Record (KSLG)
Temperature  
Mean Temperature 50 °F -  
Max Temperature 64 °F 67 °F 86 °F (2006)
Min Temperature 37 °F 47 °F 35 °F (1998)
Degree Days  
Heating Degree Days 14    
Moisture  
Dew Point 45 °F    
Average Humidity 94    
Maximum Humidity 100    
Minimum Humidity 49    
Precipitation  
Precipitation 0.00 in - - ()
Sea Level Pressure  
Sea Level Pressure 30.00 in    
Wind  
Wind Speed 8 mph (North)    
Max Wind Speed 17 mph    
Max Gust Speed 23 mph    
Visibility 8 miles    
Events Rain , Thunderstorm    
Averages and records for this station are not official NWS values.
T = Trace of Precipitation, MM = Missing Value Source: NWS Daily Summary

Daily Weather History Graph

Daily Weather History Graph

Search for Another Location

Airport:

Trip Planner

Search our weather history database for the weather conditions in past years. The results will help you decide how hot, cold, wet, or windy it might be!

Date:

Astronomy

Apr. 23, 2013 Rise Set
Actual Time 6:34 AM CDT 8:00 PM CDT
Civil Twilight 6:07 AM CDT 8:27 PM CDT
Nautical Twilight 5:34 AM CDT 9:00 PM CDT
Astronomical Twilight 5:00 AM CDT 9:34 PM CDT
Moon 5:59 PM CDT (4/23) 4:59 AM CDT (4/23)
Length of Visible Light 14h 20m
Length of Day
13h 26m
Waxing Gibbous, 94% of the Moon is Illuminated
Apr 23
Waxing Gibbous
Apr 25
Full
May 2
Last Quarter
May 9
New
May 17
First Quarter

Hourly Weather History & Observations

Time (CDT) Temp. Windchill Dew Point Humidity Pressure Visibility Wind Dir Wind Speed Gust Speed Precip Events Conditions
12:15 AM 64.4 °F - 44.6 °F 49% 29.94 in 10.0 mi SE 8.1 mph - N/A   Scattered Clouds
12:35 AM 64.4 °F - 46.4 °F 52% 29.93 in 10.0 mi SE 10.4 mph - N/A   Scattered Clouds
12:55 AM 62.6 °F - 46.4 °F 55% 29.93 in 10.0 mi SE 8.1 mph - N/A   Clear
1:15 AM 62.6 °F - 46.4 °F 55% 29.93 in 10.0 mi SE 5.8 mph - N/A   Clear
1:35 AM 62.6 °F - 46.4 °F 55% 29.93 in 10.0 mi ESE 5.8 mph - N/A   Mostly Cloudy
1:55 AM 62.6 °F - 46.4 °F 55% 29.93 in 10.0 mi ESE 3.5 mph - N/A Rain Light Rain
2:15 AM 59.0 °F - 50.0 °F 72% 29.93 in 7.0 mi Calm Calm - N/A Rain Rain
2:35 AM 57.2 °F - 51.8 °F 82% 29.89 in 10.0 mi NE 4.6 mph - N/A Rain Light Rain
2:55 AM 57.2 °F - 51.8 °F 82% 29.88 in 10.0 mi East 4.6 mph - N/A   Mostly Cloudy
3:15 AM 57.2 °F - 51.8 °F 82% 29.86 in 10.0 mi East 4.6 mph - N/A   Mostly Cloudy
3:35 AM 57.2 °F - 51.8 °F 82% 29.85 in 10.0 mi East 5.8 mph - N/A   Mostly Cloudy
3:55 AM 55.4 °F - 51.8 °F 88% 29.84 in 10.0 mi East 5.8 mph - N/A   Mostly Cloudy
4:15 AM 57.2 °F - 51.8 °F 82% 29.83 in 10.0 mi East 4.6 mph - N/A   Overcast
4:35 AM 57.2 °F - 51.8 °F 82% 29.88 in 10.0 mi NNW 3.5 mph - N/A   Overcast
4:55 AM 55.4 °F - 53.6 °F 94% 29.89 in 5.0 mi West 4.6 mph - N/A Rain Heavy Rain
5:15 AM 55.4 °F - 55.4 °F 100% 29.86 in 10.0 mi North 5.8 mph - N/A Rain , Thunderstorm Rain
5:35 AM 55.4 °F - 55.4 °F 100% 29.88 in 10.0 mi NW 6.9 mph - N/A Rain Light Rain
5:55 AM 55.4 °F - 55.4 °F 100% 29.89 in 10.0 mi NNW 5.8 mph - N/A Rain Light Rain
6:15 AM 55.4 °F - 55.4 °F 100% 29.90 in 10.0 mi North 5.8 mph - N/A Rain Light Rain
6:35 AM 55.4 °F - 55.4 °F 100% 29.91 in 10.0 mi North 6.9 mph - N/A Rain Light Rain
6:55 AM 55.4 °F - 55.4 °F 100% 29.91 in 10.0 mi North 4.6 mph - N/A   Light Drizzle
7:15 AM 53.6 °F - 53.6 °F 100% 29.92 in 10.0 mi NNE 6.9 mph - N/A   Overcast
7:35 AM 53.6 °F - 53.6 °F 100% 29.92 in 10.0 mi NNE 6.9 mph - N/A   Overcast
7:55 AM 53.6 °F - 53.6 °F 100% 29.92 in 10.0 mi NE 4.6 mph - N/A   Overcast
8:15 AM 53.6 °F - 53.6 °F 100% 29.93 in 10.0 mi Calm Calm - N/A   Overcast
8:35 AM 53.6 °F - 53.6 °F 100% 29.93 in 10.0 mi NNE 6.9 mph - N/A   Overcast
8:55 AM 53.6 °F - 53.6 °F 100% 29.94 in 10.0 mi North 4.6 mph - N/A   Overcast
9:15 AM 51.8 °F - 51.8 °F 100% 29.96 in 10.0 mi NW 12.7 mph - N/A   Overcast
9:35 AM 50.0 °F - 50.0 °F 100% 29.95 in 10.0 mi North 8.1 mph - N/A   Overcast
9:55 AM 50.0 °F - 50.0 °F 100% 29.96 in 10.0 mi North 12.7 mph - N/A   Overcast
10:15 AM 48.2 °F - 48.2 °F 100% 29.97 in 10.0 mi NNW 12.7 mph 16.1 mph N/A   Overcast
10:35 AM 46.4 °F 40.7 °F 46.4 °F 100% 29.97 in 7.0 mi North 12.7 mph - N/A   Overcast
10:55 AM 46.4 °F 43.5 °F 46.4 °F 100% 29.98 in 5.0 mi North 5.8 mph - N/A   Overcast
11:15 AM 46.4 °F 41.9 °F 46.4 °F 100% 29.98 in 7.0 mi North 9.2 mph - N/A   Overcast
11:35 AM 44.6 °F 38.4 °F 44.6 °F 100% 30.00 in 5.0 mi North 12.7 mph 17.3 mph N/A   Overcast
11:55 AM 42.8 °F 36.6 °F 42.8 °F 100% 30.00 in 2.5 mi North 11.5 mph - N/A   Overcast
12:15 PM 42.8 °F 37.5 °F 42.8 °F 100% 30.01 in 2.0 mi North 9.2 mph - N/A   Overcast
12:35 PM 42.8 °F 37.5 °F 42.8 °F 100% 30.00 in 1.8 mi North 9.2 mph - N/A   Overcast
12:55 PM 42.8 °F 37.5 °F 42.8 °F 100% 30.02 in 2.5 mi North 9.2 mph - N/A   Overcast
1:15 PM 42.8 °F 35.4 °F 42.8 °F 100% 30.01 in 3.0 mi NNW 15.0 mph - N/A Rain Light Rain
1:35 PM 42.8 °F 36.6 °F 42.8 °F 100% 30.01 in 2.5 mi NNW 11.5 mph - N/A   Overcast
1:55 PM 42.8 °F 37.0 °F 42.8 °F 100% 30.02 in 7.0 mi North 10.4 mph - N/A   Overcast
2:15 PM 41.0 °F 34.7 °F 41.0 °F 100% 30.03 in 3.0 mi North 10.4 mph - N/A Rain Light Rain
2:35 PM 41.0 °F 35.8 °F 41.0 °F 100% 30.03 in 7.0 mi North 8.1 mph 17.3 mph N/A   Light Drizzle
2:55 PM 41.0 °F 34.3 °F 41.0 °F 100% 30.03 in 2.5 mi NNW 11.5 mph - N/A   Drizzle
3:15 PM 41.0 °F 33.9 °F 41.0 °F 100% 30.04 in 3.0 mi NNW 12.7 mph 18.4 mph N/A   Overcast
3:35 PM 41.0 °F 34.7 °F 41.0 °F 100% 30.04 in 3.0 mi North 10.4 mph 17.3 mph N/A   Overcast
3:55 PM 41.0 °F 35.2 °F 41.0 °F 100% 30.05 in 7.0 mi NNW 9.2 mph - N/A   Drizzle
4:15 PM 41.0 °F 35.8 °F 41.0 °F 100% 30.04 in 3.0 mi North 8.1 mph - N/A   Light Drizzle
4:35 PM 41.0 °F 35.8 °F 41.0 °F 100% 30.04 in 2.5 mi North 8.1 mph - N/A   Overcast
4:55 PM 41.0 °F 34.7 °F 41.0 °F 100% 30.04 in 4.0 mi North 10.4 mph - N/A   Overcast
5:15 PM 41.0 °F 34.3 °F 41.0 °F 100% 30.05 in 5.0 mi NNW 11.5 mph - N/A   Overcast
5:35 PM 41.0 °F 33.9 °F 41.0 °F 100% 30.05 in 4.0 mi NNW 12.7 mph 19.6 mph N/A   Light Drizzle
5:55 PM 41.0 °F 35.2 °F 41.0 °F 100% 30.06 in 7.0 mi North 9.2 mph - N/A   Overcast
6:15 PM 41.0 °F 33.9 °F 41.0 °F 100% 30.06 in 10.0 mi North 12.7 mph 19.6 mph N/A   Overcast
6:35 PM 39.2 °F 30.8 °F 39.2 °F 100% 30.07 in 4.0 mi NNW 15.0 mph 19.6 mph N/A   Overcast
6:55 PM 39.2 °F 33.0 °F 39.2 °F 100% 30.08 in 5.0 mi North 9.2 mph - N/A   Overcast
7:15 PM 39.2 °F 33.0 °F 39.2 °F 100% 30.09 in 7.0 mi North 9.2 mph - N/A   Overcast
7:35 PM 39.2 °F 32.5 °F 39.2 °F 100% 30.09 in 7.0 mi North 10.4 mph 16.1 mph N/A Rain Light Rain
7:55 PM 37.4 °F 29.8 °F 37.4 °F 100% 30.11 in 10.0 mi NNW 11.5 mph - N/A   Overcast
8:15 PM 37.4 °F 31.4 °F 37.4 °F 100% 30.11 in 10.0 mi North 8.1 mph - N/A   Overcast
8:35 PM 37.4 °F 29.3 °F 37.4 °F 100% 30.12 in 7.0 mi NNW 12.7 mph - N/A   Drizzle
8:55 PM 37.4 °F 31.4 °F 37.4 °F 100% 30.13 in 10.0 mi North 8.1 mph - N/A   Overcast
9:15 PM 37.4 °F 30.3 °F 37.4 °F 100% 30.14 in 7.0 mi North 10.4 mph 18.4 mph N/A   Overcast
9:35 PM 37.4 °F 30.3 °F 37.4 °F 100% 30.16 in 10.0 mi NNW 10.4 mph 17.3 mph N/A   Overcast
9:55 PM 37.4 °F 30.3 °F 37.4 °F 100% 30.16 in 10.0 mi NNW 10.4 mph - N/A   Overcast
10:15 PM 37.4 °F 29.8 °F 37.4 °F 100% 30.16 in 7.0 mi NNW 11.5 mph - N/A   Overcast
10:35 PM 37.4 °F 29.3 °F 37.4 °F 100% 30.17 in 10.0 mi NNW 12.7 mph 21.9 mph N/A   Overcast
10:55 PM 37.4 °F 29.8 °F 37.4 °F 100% 30.17 in 10.0 mi North 11.5 mph - N/A   Overcast
11:15 PM 37.4 °F 27.8 °F 37.4 °F 100% 30.17 in 10.0 mi NNW 17.3 mph 23.0 mph N/A   Overcast
11:35 PM 37.4 °F 28.9 °F 37.4 °F 100% 30.18 in 10.0 mi North 13.8 mph - N/A   Overcast
11:55 PM 37.4 °F 29.8 °F 37.4 °F 100% 30.17 in 10.0 mi North 11.5 mph 16.1 mph N/A   Overcast